Location: Sungai Bunut
(2.6333°N, 113.7333°E)
Time: 07:24:35
(UTC+00:00)

Transit 2A - Pass Details

Date: 08 December 2023
Orbit: 599 x 953 km, 66.7° (Epoch: 04 March)

Event Time Altitude Azimuth Distance (km) Brightness Sun altitude
Rises 04:33:20 0° 170° (S) 3,533 9.8 64.4°
Reaches altitude 10° 04:36:51 10° 151° (SSE) 2,533 9.1 64.2°
Maximum altitude 04:40:31 17° 112° (ESE) 2,004 8.5 64.0°
Drops below altitude 10° 04:44:01 10° 72° (ENE) 2,383 8.5 63.8°
Sets 04:47:09 0° 52° (NE) 3,236 9.0 63.6°
